Starlink 32118

operational
NORAD ID: 60280 Int'l Des: 2024-132 Owner: SPXS Country: US Constellation: starlink
LEOCIRCULAR

Starlink 32118について

説明を読み込み中...

リアルタイム位置

3D地球を読み込み中...

次回通過

高度履歴

Altitude vs Time

uPlot chart will show altitude changes over time

軌道要素

1 60280U 24132C 25306.20203140 .00000769 00000-0 38094-4 0 9996
2 60280 53.1598 284.4429 0001283 100.4051 259.7094 15.30193062 72046
Epoch: Nov 2, 2025 • Age: 40 hours

現在のステータス

高度 494.6 km
速度 7.62 km/s
衛星直下点 -53.31°S, 175.25°W
打ち上げ日 Jul 28, 2024
運用期間 1.2 years
タイプ internet

技術仕様

分類 Payload
質量 730.00 kg
乾燥質量 700.00 kg
総質量 730.00 kg
長さ 0.30 m
直径 4.10 m
スパン 29.00 m
形状 Box + pan
製造者 SPXS
バスタイプ Starlink V2M
フェーズステータス In Orbit
所有者/国 SPXS/US

大規模コンステレーション

Loading constellations...